Content
SEND FEEDBACK

Daily
Averages
Monthly
Summary
United States of America

LAKE PLACID, NEW YORK


Home > North America > United States > New York
Elevation: 1984 feet     Latitude: 44 15N     Longitude: 073 59W

WEATHER
 
SELECT A DAY
Number of Records: 230,303;   Date Range: 1/1/95 - 11/23/14
 
SHARE

PRINT THIS DATA

[ ← Previous Day ]
WEATHER ALMANAC - FEBRUARY 10, 2013
[ Next Day → ]
[ °C ]   °F
Weather ElementAverageHighLow
Temperature2.3 °F30 °F (3:51 pm)-25.1 °F (4:51 am)
Dewpoint-6.8 °F12.9 °F (4:51 pm)-29.9 °F (3:51 am)
Humidity70.1 %96 % (8:51 pm)28 % (1:51 pm)
Barometer30.38 in30.49 in (7:51 am)30.19 in (11:51 pm)
Wind Speed0.4 mph5.8 mph (5:51 pm)
Weather ElementAverage
Visibility10 mi
Wind DirectionN (3.9 °)

Weather ElementTotal
Precipitation---
Heating Degree Days62.6 (Base 65)
Averaged from 23 records on February 10, 2013
WEATHER CONDITIONS BREAKOUT
WIND DIRECTION BREAKOUT
WEATHER BY HOUR - FEBRUARY 10, 2013
[ °C ]   °F
Local TimeTemperatureDewpointHumidityBarometerVisibilityWind DirectionWind SpeedGust SpeedPrecipitationEventsConditions
1:51 AM-20.9 °F-26.0 °F77 %30.40 in10.0 miCalmClear
2:51 AM-20.9 °F-27.9 °F70 %30.41 in10.0 miCalmClear
3:51 AM-24.0 °F-29.9 °F74 %30.42 in10.0 miCalmClear
4:51 AM-25.1 °F-29.9 °F78 %30.43 in10.0 miCalmClear
5:51 AM-25.1 °F-29.9 °F78 %30.44 in10.0 miCalmClear
6:51 AM-24.0 °F-29.9 °F74 %30.47 in10.0 miCalmClear
7:51 AM-20.9 °F-25.1 °F81 %30.49 in10.0 miCalmClear
8:51 AM-9.9 °F-11.0 °F95 %30.49 in10.0 miCalmClear
9:51 AM1.0 °F-0.9 °F91 %30.49 in10.0 miCalmClear
10:51 AM10.9 °F3.0 °F70 %30.47 in10.0 miCalmClear
11:51 AM17.1 °F5.0 °F59 %30.44 in10.0 miCalmClear
12:51 PM21.9 °F-2.9 °F34 %30.40 in10.0 miCalmScattered Clouds
1:51 PM26.1 °F-2.9 °F28 %30.36 in10.0 miCalmClear
2:51 PM28.0 °F1.0 °F31 %30.36 in10.0 miCalmClear
3:51 PM30.0 °F8.1 °F40 %30.35 in10.0 miCalmClear
4:51 PM24.1 °F12.9 °F62 %30.35 in10.0 miCalmScattered Clouds
5:51 PM21.0 °F12.0 °F68 %30.34 in10.0 miENE (60°)5.8 mphOvercast
6:51 PM19.0 °F7.0 °F59 %30.34 in10.0 miNNE (30°)3.5 mphClear
7:51 PM10.9 °F6.1 °F81 %30.32 in10.0 miCalmClear
8:51 PM3.9 °F3.0 °F96 %30.30 in10.0 miCalmClear
9:51 PM1.9 °F-0.9 °F88 %30.26 in10.0 miCalmClear
10:51 PM3.9 °F1.9 °F91 %30.23 in10.0 miCalmClear
11:51 PM3.0 °F0.0 °F87 %30.19 in10.0 miCalmClear
Hourly data recorded from KSLK, located miles away from Lake Placid, New York







STORIES FROM OUR PARTNERS